| time (UTC) | temp C | wind direction | speed KPH | gust KPH | rain 1hr cm | rain 24hr cm | rain mn cm | humidity % | barometer mb |
| 20260906025601 | 24 | 60 | 0.0 | 1.6 | 0.00 | 0.56 | 0.56 | 81 | 1046.2 |
| 20260906025100 | 24 | 11 | 1.6 | 3.2 | 0.00 | 0.56 | 0.56 | 80 | 1046.4 |
| 20260906024555 | 24 | 223 | 0.0 | 3.2 | 0.00 | 0.56 | 0.56 | 80 | 1046.1 |
| 20260906024055 | 23 | 354 | 4.8 | 9.7 | 0.00 | 0.56 | 0.56 | 86 | 1046.6 |
| 20260906023552 | 23 | 11 | 0.0 | 0.0 | 0.00 | 0.56 | 0.56 | 86 | 1046.2 |
| 20260906023051 | 23 | 11 | 0.0 | 0.0 | 0.00 | 0.56 | 0.56 | 85 | 1046.1 |
| 20260906022547 | 24 | 11 | 0.0 | 0.0 | 0.00 | 0.56 | 0.56 | 84 | 1045.9 |
| 20260906022042 | 24 | 11 | 0.0 | 0.0 | 0.00 | 0.56 | 0.56 | 83 | 1046.0 |
| 20260906021538 | 24 | 11 | 0.0 | 1.6 | 0.00 | 0.56 | 0.56 | 84 | 1045.8 |
| 20260906021037 | 24 | 10 | 0.0 | 0.0 | 0.00 | 0.56 | 0.56 | 84 | 1045.9 |
| 20260906020537 | 24 | 10 | 0.0 | 0.0 | 0.00 | 0.56 | 0.56 | 84 | 1045.9 |
| 20260906020036 | 24 | 10 | 0.0 | 0.0 | 0.00 | 0.56 | 0.56 | 83 | 1045.3 |
| 20260906015535 | 25 | 10 | 0.0 | 0.0 | 0.00 | 0.56 | 0.56 | 84 | 1045.6 |
| 20260906015029 | 25 | 10 | 0.0 | 0.0 | 0.00 | 0.56 | 0.56 | 83 | 1045.6 |
| 20260906014524 | 25 | 10 | 0.0 | 0.0 | 0.00 | 0.56 | 0.56 | 83 | 1045.5 |
| 20260906014020 | 25 | 10 | 0.0 | 0.0 | 0.00 | 0.56 | 0.56 | 84 | 1045.6 |
| 20260906013515 | 25 | 10 | 0.0 | 0.0 | 0.00 | 0.56 | 0.56 | 85 | 1045.6 |
| 20260906013011 | 25 | 9 | 0.0 | 0.0 | 0.00 | 0.56 | 0.56 | 85 | 1045.6 |
| 20260906012506 | 26 | 9 | 0.0 | 1.6 | 0.00 | 0.56 | 0.56 | 83 | 1045.5 |
| 20260906012005 | 26 | 9 | 1.6 | 1.6 | 0.00 | 0.56 | 0.56 | 82 | 1045.3 |
| 20260906011501 | 26 | 9 | 0.0 | 0.0 | 0.00 | 0.56 | 0.56 | 85 | 1045.4 |
| 20260906010956 | 26 | 9 | 1.6 | 1.6 | 0.00 | 0.56 | 0.56 | 84 | 1045.2 |
| 20260906010452 | 26 | 9 | 0.0 | 0.0 | 0.00 | 0.56 | 0.56 | 83 | 1045.2 |
| 20260906005948 | 26 | 51 | 1.6 | 1.6 | 0.00 | 0.56 | 0.56 | 82 | 1045.2 |
| 20260906005447 | 26 | 51 | 0.0 | 1.6 | 0.00 | 0.56 | 0.56 | 82 | 1045.1 |
| 20260906004946 | 26 | 51 | 1.6 | 1.6 | 0.00 | 0.56 | 0.56 | 84 | 1045.0 |
| 20260906004445 | 26 | 51 | 0.0 | 0.0 | 0.00 | 0.56 | 0.56 | 84 | 1045.0 |
| 20260906003941 | 26 | 51 | 0.0 | 0.0 | 0.00 | 0.56 | 0.56 | 83 | 1044.9 |
| 20260906003441 | 26 | 51 | 0.0 | 0.0 | 0.00 | 0.56 | 0.56 | 81 | 1044.6 |
| 20260906002936 | 27 | 51 | 0.0 | 0.0 | 0.00 | 0.56 | 0.56 | 79 | 1044.8 |
| 20260906002431 | 27 | 51 | 0.0 | 0.0 | 0.00 | 0.56 | 0.56 | 78 | 1044.9 |
| 20260906001926 | 27 | 51 | 1.6 | 1.6 | 0.00 | 0.56 | 0.56 | 77 | 1045.0 |
| 20260906001421 | 27 | 15 | 0.0 | 0.0 | 0.00 | 0.56 | 0.56 | 79 | 1045.2 |
| 20260906000917 | 27 | 14 | 0.0 | 0.0 | 0.00 | 0.56 | 0.56 | 78 | 1044.9 |
| 20260906000412 | 28 | 14 | 0.0 | 0.0 | 0.00 | 0.56 | 0.56 | 76 | 1045.0 |
| 20260905235907 | 28 | 14 | 0.0 | 0.0 | 0.00 | 0.56 | 0.56 | 75 | 1045.3 |
| 20260905235401 | 28 | 14 | 0.0 | 0.0 | 0.00 | 0.56 | 0.56 | 76 | 1045.3 |
| 20260905234856 | 28 | 16 | 0.0 | 0.0 | 0.00 | 0.56 | 0.56 | 72 | 1045.4 |
| 20260905234352 | 28 | 17 | 0.0 | 0.0 | 0.00 | 0.56 | 0.56 | 74 | 1045.5 |
| 20260905233847 | 29 | 17 | 0.0 | 0.0 | 0.00 | 0.56 | 0.56 | 73 | 1045.5 |
| 20260905233342 | 29 | 17 | 0.0 | 1.6 | 0.00 | 0.56 | 0.56 | 67 | 1045.5 |
| 20260905232841 | 30 | 17 | 0.0 | 0.0 | 0.00 | 0.56 | 0.56 | 69 | 1045.2 |
| 20260905232337 | 30 | 17 | 0.0 | 0.0 | 0.00 | 0.56 | 0.56 | 68 | 1045.1 |
| 20260905231833 | 30 | 17 | 1.6 | 1.6 | 0.00 | 0.56 | 0.56 | 64 | 1045.7 |
| 20260905231332 | 30 | 17 | 1.6 | 1.6 | 0.00 | 0.56 | 0.56 | 66 | 1045.6 |
| 20260905230829 | 31 | 17 | 1.6 | 1.6 | 0.00 | 0.56 | 0.56 | 63 | 1045.7 |
| 20260905230327 | 31 | 17 | 1.6 | 1.6 | 0.00 | 0.56 | 0.56 | 61 | 1045.6 |
| 20260905225826 | 32 | 337 | 0.0 | 0.0 | 0.00 | 0.56 | 0.56 | 58 | 1045.1 |
| 20260905225322 | 32 | 336 | 0.0 | 0.0 | 0.00 | 0.56 | 0.56 | 60 | 1045.7 |
| 20260905224821 | 32 | 336 | 0.0 | 0.0 | 0.00 | 0.56 | 0.56 | 60 | 1045.4 |
| 20260905224317 | 33 | 336 | 1.6 | 1.6 | 0.00 | 0.56 | 0.56 | 54 | 1045.4 |
| 20260905223812 | 32 | 336 | 0.0 | 0.0 | 0.00 | 0.56 | 0.56 | 55 | 1045.5 |
| 20260905223310 | 32 | 336 | 1.6 | 1.6 | 0.00 | 0.56 | 0.56 | 55 | 1045.0 |
| 20260905222805 | 33 | 324 | 3.2 | 4.8 | 0.00 | 0.56 | 0.56 | 55 | 1045.6 |
| 20260905222306 | 33 | 337 | 1.6 | 4.8 | 0.00 | 0.56 | 0.56 | 54 | 1045.5 |
| 20260905221800 | 33 | 350 | 3.2 | 4.8 | 0.00 | 0.56 | 0.56 | 52 | 1045.8 |
| 20260905221256 | 33 | 49 | 1.6 | 6.4 | 0.00 | 0.56 | 0.56 | 50 | 1045.5 |
| 20260905220752 | 33 | 352 | 0.0 | 3.2 | 0.00 | 0.56 | 0.56 | 53 | 1045.5 |
| 20260905220248 | 33 | 343 | 4.8 | 6.4 | 0.00 | 0.56 | 0.56 | 50 | 1045.6 |
| 20260905215747 | 33 | 349 | 3.2 | 6.4 | 0.00 | 0.56 | 0.56 | 51 | 1045.3 |
| 20260905215243 | 33 | 9 | 6.4 | 6.4 | 0.00 | 0.56 | 0.56 | 51 | 1045.5 |
| 20260905214738 | 33 | 336 | 3.2 | 9.7 | 0.00 | 0.56 | 0.56 | 51 | 1045.7 |
| 20260905214234 | 33 | 349 | 4.8 | 4.8 | 0.00 | 0.56 | 0.56 | 51 | 1045.4 |
| 20260905213729 | 33 | 341 | 6.4 | 9.7 | 0.00 | 0.56 | 0.56 | 51 | 1045.4 |
| 20260905213226 | 34 | 308 | 6.4 | 9.7 | 0.00 | 0.56 | 0.56 | 50 | 1045.3 |
| 20260905212720 | 34 | 344 | 6.4 | 6.4 | 0.00 | 0.56 | 0.56 | 47 | 1044.7 |
| 20260905212220 | 34 | 279 | 0.0 | 4.8 | 0.00 | 0.56 | 0.56 | 48 | 1045.1 |
| 20260905211719 | 34 | 295 | 8.0 | 6.4 | 0.00 | 0.56 | 0.56 | 48 | 1045.2 |
| 20260905211214 | 34 | 307 | 6.4 | 9.7 | 0.00 | 0.56 | 0.56 | 48 | 1045.2 |
| 20260905210712 | 34 | 269 | 3.2 | 6.4 | 0.00 | 0.56 | 0.56 | 48 | 1045.3 |
| 20260905210212 | 34 | 300 | 4.8 | 4.8 | 0.00 | 0.56 | 0.56 | 47 | 1045.4 |
| 20260905205710 | 34 | 2 | 3.2 | 4.8 | 0.00 | 0.56 | 0.56 | 47 | 1045.4 |
| 20260905205205 | 34 | 295 | 1.6 | 6.4 | 0.00 | 0.56 | 0.56 | 47 | 1045.4 |
| 20260905204704 | 33 | 316 | 3.2 | 4.8 | 0.00 | 0.56 | 0.56 | 49 | 1045.3 |
| 20260905204159 | 33 | 330 | 3.2 | 9.7 | 0.00 | 0.56 | 0.56 | 50 | 1045.5 |
| 20260905203654 | 33 | 330 | 6.4 | 6.4 | 0.00 | 0.56 | 0.56 | 50 | 1045.3 |
| 20260905203150 | 33 | 12 | 1.6 | 4.8 | 0.00 | 0.56 | 0.56 | 47 | 1045.2 |
| 20260905202645 | 34 | 358 | 4.8 | 9.7 | 0.00 | 0.56 | 0.56 | 48 | 1045.5 |
| 20260905202140 | 34 | 316 | 3.2 | 4.8 | 0.00 | 0.56 | 0.56 | 46 | 1045.5 |
| 20260905201636 | 34 | 319 | 6.4 | 9.7 | 0.00 | 0.56 | 0.56 | 46 | 1045.8 |
| 20260905201135 | 34 | 289 | 1.6 | 11.3 | 0.00 | 0.56 | 0.56 | 50 | 1045.6 |
| 20260905200632 | 33 | 323 | 1.6 | 3.2 | 0.00 | 0.56 | 0.56 | 47 | 1046.0 |
| 20260905200127 | 33 | 317 | 4.8 | 4.8 | 0.00 | 0.56 | 0.56 | 49 | 1046.1 |
| 20260905195625 | 33 | 349 | 4.8 | 4.8 | 0.00 | 0.56 | 0.56 | 46 | 1046.1 |
| 20260905195120 | 33 | 333 | 1.6 | 9.7 | 0.00 | 0.56 | 0.56 | 47 | 1046.0 |
| 20260905194620 | 34 | 332 | 6.4 | 6.4 | 0.00 | 0.56 | 0.56 | 45 | 1046.0 |
| 20260905194119 | 33 | 333 | 1.6 | 4.8 | 0.00 | 0.56 | 0.56 | 49 | 1046.2 |
| 20260905193614 | 33 | 341 | 3.2 | 9.7 | 0.00 | 0.56 | 0.56 | 47 | 1046.3 |
| 20260905193109 | 33 | 346 | 3.2 | 3.2 | 0.00 | 0.56 | 0.56 | 44 | 1045.9 |
| 20260905192605 | 34 | 319 | 4.8 | 4.8 | 0.00 | 0.56 | 0.56 | 47 | 1046.2 |
| 20260905192101 | 34 | 306 | 4.8 | 6.4 | 0.00 | 0.56 | 0.56 | 47 | 1046.5 |
| 20260905191559 | 33 | 256 | 4.8 | 4.8 | 0.00 | 0.56 | 0.56 | 46 | 1046.6 |
| 20260905191059 | 33 | 226 | 4.8 | 9.7 | 0.00 | 0.56 | 0.56 | 47 | 1046.4 |
| 20260905190557 | 33 | 231 | 4.8 | 9.7 | 0.00 | 0.56 | 0.56 | 48 | 1046.6 |
| 20260905190057 | 33 | 284 | 6.4 | 6.4 | 0.00 | 0.56 | 0.56 | 46 | 1046.7 |
| 20260905185556 | 33 | 184 | 4.8 | 11.3 | 0.00 | 0.56 | 0.56 | 47 | 1046.8 |
| 20260905185056 | 33 | 224 | 1.6 | 4.8 | 0.00 | 0.56 | 0.56 | 48 | 1046.9 |
| 20260905184550 | 33 | 333 | 4.8 | 4.8 | 0.00 | 0.56 | 0.56 | 49 | 1046.9 |
| 20260905184050 | 33 | 75 | 1.6 | 3.2 | 0.00 | 0.56 | 0.56 | 45 | 1046.9 |
| 20260905183549 | 33 | 272 | 1.6 | 4.8 | 0.00 | 0.56 | 0.56 | 48 | 1046.9 |
| 20260905183044 | 32 | 297 | 3.2 | 4.8 | 0.00 | 0.56 | 0.56 | 47 | 1047.2 |
| 20260905182544 | 32 | 228 | 4.8 | 9.7 | 0.00 | 0.56 | 0.56 | 48 | 1047.1 |
| 20260905182038 | 32 | 189 | 3.2 | 6.4 | 0.00 | 0.56 | 0.56 | 47 | 1047.4 |
| 20260905181533 | 33 | 262 | 3.2 | 4.8 | 0.00 | 0.56 | 0.56 | 47 | 1047.4 |
| 20260905181032 | 32 | 218 | 3.2 | 3.2 | 0.00 | 0.56 | 0.56 | 52 | 1047.1 |
| 20260905180527 | 32 | 285 | 1.6 | 3.2 | 0.00 | 0.56 | 0.56 | 51 | 1047.6 |
| 20260905180023 | 32 | 247 | 3.2 | 4.8 | 0.00 | 0.56 | 0.56 | 49 | 1047.7 |
| 20260905175521 | 32 | 172 | 3.2 | 6.4 | 0.00 | 0.56 | 0.56 | 48 | 1046.9 |
| 20260905175017 | 32 | 74 | 1.6 | 1.6 | 0.00 | 0.56 | 0.56 | 49 | 1047.7 |
| 20260905174513 | 31 | 143 | 0.0 | 4.8 | 0.00 | 0.56 | 0.56 | 56 | 1047.7 |
| 20260905174008 | 32 | 184 | 4.8 | 6.4 | 0.00 | 0.56 | 0.56 | 50 | 1047.6 |
| 20260905173504 | 32 | 152 | 4.8 | 4.8 | 0.00 | 0.56 | 0.56 | 49 | 1047.4 |
| 20260905172959 | 31 | 210 | 3.2 | 4.8 | 0.00 | 0.56 | 0.56 | 52 | 1047.4 |
| 20260905172458 | 31 | 120 | 8.0 | 11.3 | 0.00 | 0.56 | 0.56 | 50 | 1047.8 |
| 20260905171953 | 31 | 171 | 3.2 | 9.7 | 0.00 | 0.56 | 0.56 | 50 | 1047.8 |
| 20260905171450 | 31 | 187 | 8.0 | 11.3 | 0.00 | 0.56 | 0.56 | 51 | 1048.1 |
| 20260905170946 | 31 | 195 | 6.4 | 9.7 | 0.00 | 0.56 | 0.56 | 53 | 1047.9 |
| 20260905170442 | 31 | 198 | 1.6 | 6.4 | 0.00 | 0.56 | 0.56 | 53 | 1047.8 |
| 20260905165941 | 31 | 207 | 3.2 | 9.7 | 0.00 | 0.56 | 0.56 | 52 | 1048.2 |
| 20260905165436 | 31 | 193 | 4.8 | 4.8 | 0.00 | 0.56 | 0.56 | 54 | 1048.3 |
| 20260905164932 | 31 | 181 | 3.2 | 6.4 | 0.00 | 0.56 | 0.56 | 55 | 1048.4 |
| 20260905164426 | 30 | 200 | 3.2 | 4.8 | 0.00 | 0.56 | 0.56 | 55 | 1048.1 |
| 20260905163921 | 30 | 162 | 1.6 | 9.7 | 0.00 | 0.56 | 0.56 | 55 | 1048.2 |
| 20260905163418 | 30 | 207 | 6.4 | 6.4 | 0.00 | 0.56 | 0.56 | 55 | 1048.1 |
| 20260905162914 | 31 | 210 | 9.7 | 12.9 | 0.00 | 0.56 | 0.56 | 52 | 1048.2 |
| 20260905162414 | 30 | 204 | 3.2 | 4.8 | 0.00 | 0.56 | 0.56 | 55 | 1048.3 |
| 20260905161909 | 30 | 207 | 4.8 | 4.8 | 0.00 | 0.56 | 0.56 | 57 | 1048.3 |
| 20260905161408 | 30 | 203 | 4.8 | 6.4 | 0.00 | 0.56 | 0.56 | 57 | 1048.1 |
| 20260905160906 | 30 | 192 | 1.6 | 6.4 | 0.00 | 0.56 | 0.56 | 55 | 1048.1 |
| 20260905160401 | 30 | 183 | 3.2 | 11.3 | 0.00 | 0.56 | 0.56 | 60 | 1048.4 |
| 20260905155855 | 29 | 194 | 3.2 | 9.7 | 0.00 | 0.56 | 0.56 | 61 | 1048.5 |
| 20260905155355 | 29 | 138 | 3.2 | 6.4 | 0.00 | 0.56 | 0.56 | 59 | 1048.2 |
| 20260905154853 | 29 | 198 | 3.2 | 4.8 | 0.00 | 0.56 | 0.56 | 60 | 1048.4 |
| 20260905154349 | 28 | 150 | 6.4 | 6.4 | 0.00 | 0.56 | 0.56 | 61 | 1048.4 |
| 20260905153844 | 29 | 200 | 6.4 | 11.3 | 0.00 | 0.56 | 0.56 | 61 | 1048.5 |
| 20260905153341 | 29 | 136 | 4.8 | 9.7 | 0.00 | 0.56 | 0.56 | 61 | 1048.5 |
| 20260905152840 | 28 | 177 | 1.6 | 3.2 | 0.00 | 0.56 | 0.56 | 62 | 1048.5 |
| 20260905152340 | 28 | 223 | 4.8 | 9.7 | 0.00 | 0.56 | 0.56 | 63 | 1048.5 |
| 20260905151835 | 28 | 234 | 1.6 | 3.2 | 0.00 | 0.56 | 0.56 | 63 | 1048.8 |
| 20260905151331 | 27 | 171 | 0.0 | 9.7 | 0.00 | 0.56 | 0.56 | 64 | 1048.8 |
| 20260905150830 | 27 | 213 | 6.4 | 9.7 | 0.00 | 0.56 | 0.56 | 62 | 1049.0 |
| 20260905150325 | 28 | 217 | 4.8 | 6.4 | 0.00 | 0.56 | 0.56 | 64 | 1048.7 |
| 20260905145822 | 28 | 210 | 3.2 | 4.8 | 0.00 | 0.56 | 0.56 | 62 | 1048.9 |
| 20260905145322 | 28 | 214 | 1.6 | 4.8 | 0.00 | 0.56 | 0.56 | 60 | 1049.0 |
| 20260905144821 | 28 | 228 | 1.6 | 3.2 | 0.00 | 0.56 | 0.56 | 63 | 1048.7 |
| 20260905144317 | 27 | 26 | 0.0 | 1.6 | 0.00 | 0.56 | 0.56 | 64 | 1048.9 |
| 20260905143816 | 27 | 207 | 3.2 | 9.7 | 0.00 | 0.56 | 0.56 | 67 | 1048.8 |
| 20260905143310 | 27 | 245 | 3.2 | 3.2 | 0.00 | 0.56 | 0.56 | 67 | 1048.9 |
| 20260905142809 | 27 | 29 | 1.6 | 3.2 | 0.00 | 0.56 | 0.56 | 66 | 1049.0 |
| 20260905142305 | 27 | 106 | 1.6 | 3.2 | 0.00 | 0.56 | 0.56 | 66 | 1048.9 |
| 20260905141800 | 26 | 55 | 1.6 | 1.6 | 0.00 | 0.56 | 0.56 | 70 | 1049.2 |
| 20260905141255 | 25 | 45 | 6.4 | 6.4 | 0.00 | 0.56 | 0.56 | 71 | 1049.2 |
| 20260905140751 | 25 | 354 | 3.2 | 6.4 | 0.00 | 0.56 | 0.56 | 74 | 1049.2 |
| 20260905140250 | 25 | 187 | 4.8 | 4.8 | 0.00 | 0.56 | 0.56 | 74 | 1049.2 |
| 20260905135749 | 25 | 179 | 3.2 | 9.7 | 0.00 | 0.56 | 0.56 | 75 | 1049.2 |
| 20260905135245 | 25 | 283 | 0.0 | 6.4 | 0.00 | 0.56 | 0.56 | 79 | 1049.2 |
| 20260905134745 | 25 | 126 | 0.0 | 4.8 | 0.00 | 0.56 | 0.56 | 79 | 1049.2 |
| 20260905134245 | 24 | 156 | 0.0 | 4.8 | 0.00 | 0.56 | 0.56 | 84 | 1049.3 |
| 20260905133739 | 23 | 219 | 3.2 | 3.2 | 0.00 | 0.56 | 0.56 | 84 | 1049.5 |
| 20260905133235 | 23 | 175 | 1.6 | 3.2 | 0.00 | 0.56 | 0.56 | 86 | 1049.6 |
| 20260905132733 | 22 | 210 | 1.6 | 3.2 | 0.00 | 0.56 | 0.56 | 87 | 1049.6 |
| 20260905132229 | 22 | 114 | 3.2 | 3.2 | 0.00 | 0.56 | 0.56 | 87 | 1049.8 |
| 20260905131724 | 22 | 276 | 1.6 | 3.2 | 0.00 | 0.56 | 0.56 | 88 | 1049.7 |
| 20260905131220 | 22 | 51 | 0.0 | 9.7 | 0.00 | 0.56 | 0.56 | 90 | 1049.5 |
| 20260905130720 | 22 | 351 | 1.6 | 4.8 | 0.00 | 0.56 | 0.56 | 90 | 1049.6 |
| 20260905130219 | 22 | 326 | 4.8 | 4.8 | 0.00 | 0.56 | 0.56 | 90 | 1049.7 |
| 20260905125714 | 21 | 328 | 3.2 | 4.8 | 0.00 | 0.56 | 0.56 | 90 | 1050.0 |
| 20260905125209 | 21 | 66 | 6.4 | 11.3 | 0.00 | 0.56 | 0.56 | 90 | 1049.8 |
| 20260905124706 | 21 | 339 | 3.2 | 6.4 | 0.00 | 0.56 | 0.56 | 90 | 1049.8 |
| 20260905124202 | 21 | 9 | 4.8 | 6.4 | 0.00 | 0.56 | 0.56 | 89 | 1050.0 |
| 20260905123702 | 21 | 8 | 8.0 | 11.3 | 0.00 | 0.56 | 0.56 | 89 | 1050.2 |
| 20260905123200 | 21 | 12 | 8.0 | 11.3 | 0.00 | 0.56 | 0.56 | 88 | 1049.8 |
| 20260905122659 | 21 | 0 | 11.3 | 16.1 | 0.00 | 0.56 | 0.56 | 89 | 1049.6 |
| 20260905122154 | 21 | 351 | 6.4 | 9.7 | 0.00 | 0.56 | 0.56 | 92 | 1049.8 |
| 20260905121654 | 21 | 189 | 0.0 | 3.2 | 0.00 | 0.56 | 0.56 | 92 | 1049.3 |
| 20260905121150 | 21 | 176 | 0.0 | 1.6 | 0.00 | 0.56 | 0.56 | 90 | 1048.8 |
| 20260905120648 | 21 | 215 | 1.6 | 3.2 | 0.00 | 0.56 | 0.56 | 90 | 1049.0 |
| 20260905120144 | 22 | 352 | 0.0 | 1.6 | 0.00 | 0.56 | 0.56 | 90 | 1049.2 |
| 20260905115643 | 22 | 294 | 1.6 | 3.2 | 0.00 | 0.56 | 0.56 | 89 | 1049.1 |
| 20260905115138 | 22 | 109 | 3.2 | 9.7 | 0.00 | 0.56 | 0.56 | 88 | 1048.9 |
| 20260905114638 | 22 | 65 | 8.0 | 14.5 | 0.00 | 0.56 | 0.56 | 88 | 1049.3 |
| 20260905114136 | 21 | 27 | 3.2 | 6.4 | 0.00 | 0.56 | 0.56 | 94 | 1049.3 |
| 20260905113631 | 21 | 35 | 1.6 | 3.2 | 0.00 | 0.56 | 0.56 | 93 | 1049.2 |
| 20260905113128 | 21 | 267 | 1.6 | 9.7 | 0.00 | 0.56 | 0.56 | 93 | 1049.0 |
| 20260905112627 | 21 | 331 | 3.2 | 3.2 | 0.18 | 0.56 | 0.56 | 93 | 1048.9 |
| 20260905112124 | 21 | 221 | 3.2 | 6.4 | 0.89 | 0.56 | 0.56 | 93 | 1048.5 |
| 20260905111623 | 21 | 19 | 1.6 | 6.4 | 0.71 | 0.53 | 0.53 | 91 | 1048.1 |
| 20260905111123 | 21 | 353 | 3.2 | 9.7 | 0.00 | 0.41 | 0.41 | 91 | 1048.8 |
| 20260905110622 | 21 | 341 | 3.2 | 17.7 | 0.30 | 0.41 | 0.41 | 92 | 1048.6 |
| 20260905110117 | 22 | 3 | 4.8 | 20.9 | 0.30 | 0.41 | 0.41 | 90 | 1049.3 |
| 20260905105617 | 22 | 1 | 8.0 | 25.7 | 0.18 | 0.36 | 0.36 | 88 | 1048.5 |
| 20260905105116 | 23 | 31 | 4.8 | 9.7 | 1.27 | 0.36 | 0.36 | 91 | 1048.8 |
| 20260905104612 | 23 | 48 | 3.2 | 12.9 | 1.50 | 0.33 | 0.33 | 89 | 1048.9 |
| 20260905104107 | 23 | 3 | 9.7 | 12.9 | 0.61 | 0.10 | 0.10 | 91 | 1048.4 |
| 20260905103602 | 24 | 349 | 9.7 | 14.5 | 0.30 | 0.05 | 0.05 | 89 | 1048.0 |
| 20260905103058 | 24 | 342 | 6.4 | 11.3 | 0.00 | 0.00 | 0.00 | 89 | 1047.7 |
| 20260905102554 | 23 | 349 | 4.8 | 11.3 | 0.00 | 0.00 | 0.00 | 96 | 1047.8 |
| 20260905102051 | 22 | 355 | 4.8 | 11.3 | 0.00 | 0.00 | 0.00 | 97 | 1047.9 |
| 20260905101549 | 22 | 349 | 6.4 | 6.4 | 0.00 | 0.00 | 0.00 | 97 | 1048.3 |
| 20260905101047 | 22 | 150 | 1.6 | 1.6 | 0.00 | 0.00 | 0.00 | 96 | 1047.5 |
| 20260905100543 | 22 | 151 | 0.0 | 0.0 | 0.00 | 0.00 | 0.00 | 97 | 1047.3 |
| 20260905100043 | 22 | 151 | 0.0 | 0.0 | 0.00 | 0.00 | 0.00 | 97 | 1047.4 |
| 20260905095537 | 22 | 152 | 0.0 | 1.6 | 0.00 | 0.00 | 0.00 | 96 | 1047.3 |
| 20260905095033 | 22 | 152 | 0.0 | 0.0 | 0.00 | 0.00 | 0.00 | 96 | 1047.2 |
| 20260905094528 | 22 | 151 | 0.0 | 0.0 | 0.00 | 0.00 | 0.00 | 96 | 1047.2 |
| 20260905094027 | 22 | 151 | 0.0 | 0.0 | 0.00 | 0.00 | 0.00 | 96 | 1047.4 |
| 20260905093521 | 22 | 151 | 0.0 | 0.0 | 0.00 | 0.00 | 0.00 | 96 | 1047.2 |
| 20260905093018 | 22 | 151 | 0.0 | 0.0 | 0.00 | 0.00 | 0.00 | 96 | 1046.9 |
| 20260905092518 | 22 | 151 | 0.0 | 0.0 | 0.00 | 0.00 | 0.00 | 96 | 1046.6 |
| 20260905092015 | 22 | 151 | 0.0 | 0.0 | 0.00 | 0.00 | 0.00 | 96 | 1046.9 |
| 20260905091514 | 22 | 151 | 0.0 | 0.0 | 0.00 | 0.00 | 0.00 | 95 | 1046.8 |
| 20260905091013 | 22 | 151 | 0.0 | 0.0 | 0.00 | 0.00 | 0.00 | 95 | 1046.6 |
| 20260905090513 | 22 | 151 | 0.0 | 0.0 | 0.00 | 0.00 | 0.00 | 95 | 1046.9 |
| 20260905090008 | 22 | 151 | 0.0 | 0.0 | 0.00 | 0.00 | 0.00 | 94 | 1046.8 |
| 20260905085506 | 23 | 151 | 0.0 | 0.0 | 0.00 | 0.00 | 0.00 | 93 | 1046.9 |
| 20260905085002 | 23 | 151 | 0.0 | 0.0 | 0.00 | 0.00 | 0.00 | 92 | 1046.9 |
| 20260905084457 | 23 | 151 | 0.0 | 0.0 | 0.00 | 0.00 | 0.00 | 91 | 1047.1 |
| 20260905083957 | 24 | 151 | 0.0 | 1.6 | 0.00 | 0.00 | 0.00 | 90 | 1046.8 |
| 20260905083452 | 24 | 151 | 1.6 | 3.2 | 0.00 | 0.00 | 0.00 | 90 | 1046.9 |
| 20260905082948 | 23 | 154 | 3.2 | 3.2 | 0.00 | 0.00 | 0.00 | 92 | 1046.8 |
| 20260905082444 | 24 | 154 | 0.0 | 0.0 | 0.00 | 0.00 | 0.00 | 91 | 1046.9 |
| 20260905081944 | 24 | 155 | 1.6 | 1.6 | 0.00 | 0.00 | 0.00 | 90 | 1046.6 |
| 20260905081439 | 24 | 164 | 3.2 | 3.2 | 0.00 | 0.00 | 0.00 | 89 | 1046.7 |
| 20260905080939 | 24 | 165 | 3.2 | 4.8 | 0.00 | 0.00 | 0.00 | 90 | 1046.9 |
| 20260905080433 | 23 | 169 | 6.4 | 6.4 | 0.00 | 0.00 | 0.00 | 92 | 1046.7 |
| 20260905075932 | 23 | 161 | 1.6 | 3.2 | 0.00 | 0.00 | 0.00 | 93 | 1046.9 |
| 20260905075427 | 23 | 159 | 1.6 | 3.2 | 0.00 | 0.00 | 0.00 | 93 | 1046.8 |
| 20260905074926 | 23 | 159 | 1.6 | 3.2 | 0.00 | 0.00 | 0.00 | 93 | 1046.8 |
| 20260905074422 | 23 | 159 | 1.6 | 3.2 | 0.00 | 0.00 | 0.00 | 92 | 1046.6 |
| 20260905073917 | 23 | 159 | 1.6 | 1.6 | 0.00 | 0.00 | 0.00 | 91 | 1046.9 |
| 20260905073412 | 23 | 159 | 1.6 | 1.6 | 0.00 | 0.00 | 0.00 | 92 | 1046.9 |
| 20260905072908 | 23 | 159 | 0.0 | 0.0 | 0.00 | 0.00 | 0.00 | 91 | 1047.4 |
| 20260905072402 | 24 | 159 | 1.6 | 1.6 | 0.00 | 0.00 | 0.00 | 91 | 1047.3 |
| 20260905071859 | 23 | 158 | 1.6 | 3.2 | 0.00 | 0.00 | 0.00 | 91 | 1047.4 |
| 20260905071355 | 23 | 158 | 1.6 | 1.6 | 0.00 | 0.00 | 0.00 | 92 | 1046.8 |
| 20260905070854 | 23 | 158 | 1.6 | 1.6 | 0.00 | 0.00 | 0.00 | 94 | 1047.4 |
| 20260905070351 | 23 | 158 | 0.0 | 1.6 | 0.00 | 0.00 | 0.00 | 93 | 1047.1 |
| 20260905065850 | 23 | 158 | 0.0 | 0.0 | 0.00 | 0.00 | 0.00 | 94 | 1046.9 |
| 20260905065349 | 23 | 158 | 0.0 | 0.0 | 0.00 | 0.00 | 0.00 | 93 | 1047.5 |
| 20260905064844 | 23 | 158 | 0.0 | 1.6 | 0.00 | 0.00 | 0.00 | 94 | 1047.5 |
| 20260905064340 | 23 | 158 | 1.6 | 1.6 | 0.00 | 0.00 | 0.00 | 94 | 1047.2 |
| 20260905063838 | 23 | 158 | 1.6 | 1.6 | 0.00 | 0.00 | 0.00 | 93 | 1047.8 |
| 20260905063334 | 23 | 158 | 0.0 | 1.6 | 0.00 | 0.00 | 0.00 | 94 | 1047.8 |
| 20260905062831 | 23 | 146 | 1.6 | 1.6 | 0.00 | 0.00 | 0.00 | 95 | 1047.9 |
| 20260905062330 | 23 | 146 | 1.6 | 1.6 | 0.00 | 0.00 | 0.00 | 94 | 1047.8 |
| 20260905061825 | 23 | 146 | 0.0 | 0.0 | 0.00 | 0.00 | 0.00 | 94 | 1048.0 |
| 20260905061319 | 23 | 146 | 0.0 | 0.0 | 0.00 | 0.00 | 0.00 | 94 | 1047.9 |
| 20260905060814 | 23 | 146 | 0.0 | 0.0 | 0.00 | 0.00 | 0.00 | 94 | 1048.0 |
| 20260905060310 | 23 | 146 | 1.6 | 1.6 | 0.00 | 0.00 | 0.00 | 94 | 1048.1 |
| 20260905055809 | 23 | 146 | 0.0 | 0.0 | 0.00 | 0.00 | 0.00 | 94 | 1047.9 |
| 20260905055306 | 23 | 145 | 0.0 | 0.0 | 0.00 | 0.00 | 0.00 | 94 | 1047.9 |
| 20260905054805 | 23 | 145 | 0.0 | 1.6 | 0.00 | 0.00 | 0.00 | 94 | 1047.7 |
| 20260905054302 | 23 | 145 | 0.0 | 0.0 | 0.00 | 0.00 | 0.00 | 92 | 1048.2 |
| 20260905053800 | 23 | 145 | 0.0 | 0.0 | 0.00 | 0.00 | 0.00 | 91 | 1048.1 |
| 20260905053256 | 23 | 145 | 0.0 | 0.0 | 0.00 | 0.00 | 0.00 | 91 | 1048.4 |
| 20260905052755 | 23 | 146 | 0.0 | 0.0 | 0.00 | 0.00 | 0.00 | 92 | 1048.4 |
| 20260905052250 | 23 | 146 | 0.0 | 1.6 | 0.00 | 0.00 | 0.00 | 92 | 1048.3 |
| 20260905051750 | 23 | 146 | 0.0 | 0.0 | 0.00 | 0.00 | 0.00 | 91 | 1048.0 |
| 20260905051247 | 23 | 146 | 0.0 | 1.6 | 0.00 | 0.00 | 0.00 | 91 | 1048.4 |
| 20260905050743 | 24 | 146 | 0.0 | 0.0 | 0.00 | 0.00 | 0.00 | 91 | 1048.2 |
| 20260905050239 | 24 | 146 | 1.6 | 1.6 | 0.00 | 0.00 | 0.00 | 91 | 1048.3 |
| 20260905045739 | 23 | 145 | 0.0 | 1.6 | 0.00 | 0.00 | 0.00 | 92 | 1048.2 |
| 20260905045234 | 23 | 145 | 0.0 | 0.0 | 0.00 | 0.00 | 0.00 | 92 | 1048.2 |
| 20260905044729 | 24 | 145 | 0.0 | 0.0 | 0.00 | 0.00 | 0.00 | 91 | 1048.3 |
| 20260905044225 | 24 | 145 | 0.0 | 0.0 | 0.00 | 0.00 | 0.00 | 92 | 1048.3 |
| 20260905043723 | 24 | 145 | 0.0 | 1.6 | 0.00 | 0.00 | 0.00 | 92 | 1048.6 |
| 20260905043218 | 23 | 145 | 1.6 | 0.0 | 0.00 | 0.00 | 0.00 | 93 | 1047.9 |
| 20260905042718 | 23 | 145 | 0.0 | 0.0 | 0.00 | 0.00 | 0.00 | 92 | 1048.3 |
| 20260905042217 | 24 | 145 | 0.0 | 0.0 | 0.00 | 0.00 | 0.00 | 91 | 1048.5 |
| 20260905041713 | 24 | 145 | 0.0 | 0.0 | 0.00 | 0.00 | 0.00 | 92 | 1048.6 |
| 20260905041209 | 24 | 145 | 1.6 | 1.6 | 0.00 | 0.00 | 0.00 | 92 | 1048.3 |
| 20260905040703 | 24 | 145 | 0.0 | 0.0 | 0.00 | 0.00 | 0.00 | 91 | 1048.0 |
| 20260905040202 | 24 | 145 | 0.0 | 0.0 | 0.00 | 0.00 | 0.00 | 90 | 1048.4 |
| 20260905035702 | 25 | 145 | 0.0 | 0.0 | 0.00 | 0.00 | 0.00 | 89 | 1048.4 |
| 20260905035159 | 24 | 150 | 1.6 | 1.6 | 0.00 | 0.00 | 0.00 | 90 | 1047.7 |
| 20260905034655 | 24 | 151 | 1.6 | 3.2 | 0.00 | 0.00 | 0.00 | 91 | 1048.2 |
| 20260905034155 | 25 | 153 | 1.6 | 3.2 | 0.00 | 0.00 | 0.00 | 90 | 1048.4 |
| 20260905033653 | 24 | 107 | 1.6 | 1.6 | 0.00 | 0.00 | 0.00 | 91 | 1048.4 |
| 20260905033149 | 24 | 107 | 1.6 | 1.6 | 0.00 | 0.00 | 0.00 | 90 | 1048.7 |
| 20260905032649 | 25 | 90 | 0.0 | 0.0 | 0.00 | 0.00 | 0.00 | 90 | 1048.6 |
| 20260905032144 | 25 | 90 | 0.0 | 0.0 | 0.00 | 0.00 | 0.00 | 89 | 1048.7 |
| 20260905031640 | 25 | 90 | 0.0 | 0.0 | 0.00 | 0.00 | 0.00 | 89 | 1048.6 |
| 20260905031135 | 25 | 90 | 3.2 | 1.6 | 0.00 | 0.00 | 0.00 | 90 | 1048.5 |
| 20260905030630 | 25 | 91 | 1.6 | 1.6 | 0.00 | 0.00 | 0.00 | 90 | 1048.3 |